Weather in Kvartsitny

Russia / Republic of Karelia     61°29′52″N   35°02′50″E
temp.,
°C
wind,
m/s
gust,
m/s
humid.,
%
clouds,
%
prec.,
mm/h
press.,
hPa
HPBL,
m
2 march, tue
tue200:00+1w7158660 0.0 1002696
03:00−1wnw7158530 0.0 1003512
06:00−2wnw615860 0.0 1002547
09:00−3wnw6148440 0.0 1004601
12:00−1nw7137965 0.0 10051064
15:00−2nw6127556 0.1 10071067
18:00−4nw5128048 0.0 1010486
21:00−6nw5138160 0.0 1012384
3 march, wed
wed300:00−6wnw410850 0.0 1011228
03:00−6w4109045 0.0 1012285
06:00−5wnw4119196 0.0 1009368
09:00−4wnw4119172 0.0 1009402
12:00−2wnw5108621 0.0 1008611
15:000w5108438 0.0 1007723
18:00−3wsw499076 0.0 1004287
21:00−2sw499688 0.3 1000331
4 march, thu
thu400:00−1sw71395100 1.8 994734
03:000w71381100 2.1 991961
06:00−5w6148723 0.0 990593
09:00−4nnw9139259 0.6 991966
12:00−6nnw91489100 0.6 993718
15:00−7nnw7118899 0.6 996584
18:00−8nnw489280 0.0 998231
21:00−9nw239581 0.0 100043
5 march, fri
fri500:00−8wnw349689 0.2 1001118
03:00−8nw369692 0.5 1002224
06:00−11nw349694 0.1 100399
09:00−12nw359585 0.1 1004173
12:00−10nnw469390 0.1 1006372
15:00−11n579195 0.2 1008540
18:00−14nnw489296 0.1 1010270
21:00−16nnw239667 0.1 101230
6 march, sat
sat600:00−17nw22989 0.0 101322
03:00−18w22964 0.0 101321
06:00−17wsw339320 0.0 101262
09:00−14wsw488952 0.0 1011263
12:00−9wsw4889100 0.1 1010456
15:00−7wsw488789 0.1 1008555
18:00−9sw499097 0.0 1006386
21:00−11sw5119199 0.1 1004362